Time[GMT],air_temperature[C](-3m),wind_speed[m/s](-3m),wind_gust[m/s](-3m),wind_direction[degrees_true](-3m),wind_gust_1s[m/s](-3m),wind_min[m/s](-3m),wind_percent_good[1](-3m)
2015-08-25 14:50,19.0,2.3,3.6,218.20,4.01,0.12,1.00
2015-08-25 15:00,18.9,1.8,2.9,187.20,3.32,0.14,1.00
2015-08-25 15:10,18.9,1.5,1.9,169.40,2.25,0.51,1.00
2015-08-25 15:20,19.1,2.3,3.0,166.70,3.31,1.30,1.00
2015-08-25 15:30,19.0,1.5,1.9,177.90,2.54,0.67,1.00
2015-08-25 15:40,19.3,1.4,1.6,156.00,2.00,0.75,1.00
2015-08-25 15:50,19.3,1.4,1.6,192.00,2.09,0.75,1.00
2015-08-25 16:00,19.5,2.0,2.6,151.80,3.07,1.25,1.00
2015-08-25 16:10,19.6,2.1,2.5,143.20,2.72,1.50,1.00
2015-08-25 16:20,19.9,2.6,4.2,142.60,4.20,1.82,1.00
2015-08-25 16:30,20.0,3.0,3.9,153.20,4.18,2.01,1.00
2015-08-25 16:40,20.1,3.8,5.6,158.00,5.70,2.63,1.00
2015-08-25 16:50,20.1,3.7,5.2,156.40,5.73,2.69,1.00
2015-08-25 17:00,20.1,3.5,4.7,151.80,4.96,2.64,1.00
2015-08-25 17:10,20.1,3.6,4.5,149.30,4.69,2.53,1.00
2015-08-25 17:20,20.1,4.0,5.0,143.50,5.31,3.14,1.00
2015-08-25 17:30,20.4,3.3,4.2,130.70,4.47,2.32,1.00
2015-08-25 17:40,20.9,2.8,3.5,127.40,3.92,1.60,1.00
2015-08-25 17:50,20.7,4.3,5.0,142.70,5.25,3.28,1.00
2015-08-25 18:00,20.3,4.0,4.7,148.80,4.86,3.01,1.00
2015-08-25 18:10,20.1,4.2,5.0,144.60,5.20,3.09,1.00
2015-08-25 18:20,20.2,2.7,4.0,140.50,3.88,1.05,1.00
2015-08-25 18:30,20.3,2.1,3.0,126.50,3.29,1.28,1.00
2015-08-25 18:40,20.4,2.2,2.9,133.90,3.10,1.32,1.00
2015-08-25 18:50,20.3,3.2,3.6,127.50,3.88,2.32,1.00
2015-08-25 19:00,20.3,3.3,4.0,121.70,4.12,2.36,1.00
2015-08-25 19:10,20.4,3.6,5.3,115.20,5.59,2.20,1.00
2015-08-25 19:20,20.6,3.6,5.0,116.60,5.20,1.89,1.00
2015-08-25 19:30,20.8,3.4,5.0,113.40,5.28,1.83,1.00
2015-08-25 19:40,21.0,3.6,4.6,111.80,4.91,2.39,1.00
2015-08-25 19:50,21.1,3.9,5.1,112.80,5.46,1.13,1.00
2015-08-25 20:00,21.1,4.1,5.3,110.20,5.60,1.20,1.00
2015-08-25 20:10,21.1,3.8,5.5,109.40,5.72,1.85,1.00
2015-08-25 20:20,21.0,2.8,4.2,103.50,4.74,0.93,1.00
2015-08-25 20:30,20.9,2.5,5.4,96.10,6.14,0.45,1.00
2015-08-25 20:40,20.5,2.7,4.6,95.90,5.31,0.85,1.00
2015-08-25 20:50,20.5,2.5,4.9,88.10,5.17,0.52,1.00
2015-08-25 21:00,20.5,2.3,4.1,96.30,4.54,0.45,1.00
2015-08-25 21:10,20.6,2.7,5.3,85.20,5.62,0.53,1.00
2015-08-25 21:20,20.5,3.2,6.3,96.00,6.81,0.61,1.00
2015-08-25 21:30,20.4,3.0,5.0,99.10,6.24,0.21,1.00
2015-08-25 21:40,20.1,2.7,4.4,100.00,4.75,0.94,1.00
2015-08-25 21:50,20.0,2.4,3.7,86.60,4.02,0.61,1.00
2015-08-25 22:00,20.0,2.2,4.0,86.40,4.66,0.59,1.00
2015-08-25 22:10,20.0,3.1,4.8,92.20,5.28,0.42,1.00
2015-08-25 22:20,20.0,2.8,5.2,96.10,5.62,0.92,1.00
2015-08-25 22:30,20.0,2.8,4.3,100.50,4.60,0.33,1.00
2015-08-25 22:40,20.0,3.2,5.6,95.40,6.21,0.54,1.00
2015-08-25 22:50,19.9,2.4,3.8,99.20,4.33,0.56,1.00
2015-08-25 23:00,19.9,2.4,3.6,97.30,3.78,0.66,1.00
2015-08-25 23:10,19.9,3.4,4.8,105.60,5.22,0.74,1.00
2015-08-25 23:20,19.9,4.0,5.5,111.10,5.83,2.22,1.00
2015-08-25 23:30,19.9,3.5,5.0,112.80,5.19,1.98,1.00
2015-08-25 23:40,19.8,3.3,4.3,113.30,4.52,1.33,1.00
2015-08-25 23:50,19.8,3.2,4.7,111.70,4.96,1.74,1.00
2015-08-26 00:00,19.8,2.9,4.3,117.10,4.55,1.67,1.00
2015-08-26 00:10,19.7,2.8,3.9,115.00,4.08,1.94,1.00
2015-08-26 00:20,19.8,3.0,4.6,116.50,4.88,1.54,1.00
2015-08-26 00:30,19.9,2.6,3.6,122.30,3.83,0.99,1.00
2015-08-26 00:40,19.9,3.1,4.1,112.90,4.78,2.00,1.00
2015-08-26 00:50,19.8,2.9,3.8,117.50,4.09,1.63,1.00
2015-08-26 01:00,19.8,3.5,4.9,109.70,5.32,2.20,1.00
2015-08-26 01:10,19.8,3.9,5.3,117.60,5.74,2.56,1.00
2015-08-26 01:20,19.8,4.0,4.9,120.20,5.28,2.20,1.00
2015-08-26 01:30,19.6,3.1,4.2,124.50,4.33,2.03,1.00
2015-08-26 01:40,19.6,3.1,4.1,125.80,4.60,1.82,1.00
2015-08-26 01:50,19.7,3.4,4.4,123.40,4.94,2.49,1.00
2015-08-26 02:00,19.8,3.1,4.3,125.40,5.02,1.80,1.00
2015-08-26 02:10,19.9,3.0,4.4,137.40,4.79,1.48,1.00
2015-08-26 02:20,19.9,2.8,3.5,135.80,4.07,1.71,1.00
2015-08-26 02:30,19.9,2.7,3.7,135.20,4.19,1.42,1.00
2015-08-26 02:40,19.9,3.2,4.0,126.20,4.43,2.00,1.00
2015-08-26 02:50,19.9,3.4,4.2,121.70,4.99,2.17,1.00
2015-08-26 03:00,19.9,3.8,4.8,121.50,5.29,2.11,1.00
2015-08-26 03:10,19.8,3.4,4.2,115.60,4.64,1.94,1.00
2015-08-26 03:20,19.8,3.8,4.9,103.90,5.81,2.29,1.00
2015-08-26 03:30,19.7,3.1,4.5,121.50,4.82,1.68,1.00
2015-08-26 03:40,19.6,3.2,4.5,121.90,5.14,2.08,1.00
2015-08-26 03:50,19.6,3.8,4.8,120.90,5.30,2.30,1.00
2015-08-26 04:00,19.5,3.4,4.0,127.30,4.53,2.37,1.00
2015-08-26 04:10,19.6,4.1,5.8,129.10,6.26,2.68,1.00
2015-08-26 04:20,19.7,4.3,7.3,130.10,7.43,2.61,1.00
2015-08-26 04:30,19.7,4.3,5.5,127.60,6.52,2.68,1.00
2015-08-26 04:40,19.6,4.1,5.5,130.30,5.92,2.63,1.00
2015-08-26 04:50,19.6,3.1,4.7,133.50,5.44,1.70,1.00
2015-08-26 05:00,19.6,2.7,3.7,138.40,3.93,1.33,1.00
2015-08-26 05:10,19.6,2.8,3.8,148.30,4.03,1.29,1.00
2015-08-26 05:20,19.7,2.4,3.3,151.10,3.79,1.38,1.00
2015-08-26 05:30,19.8,1.8,2.7,139.60,3.16,1.03,1.00
2015-08-26 05:40,19.8,1.7,2.2,143.70,2.55,0.30,1.00
2015-08-26 05:50,19.8,1.9,3.5,157.60,3.87,0.36,1.00
2015-08-26 06:00,19.7,2.4,3.3,152.20,3.70,1.23,1.00
2015-08-26 06:10,19.7,2.7,3.3,153.50,3.63,1.91,1.00
2015-08-26 06:20,19.7,2.4,3.0,156.10,3.26,1.36,1.00
2015-08-26 06:30,19.8,2.2,2.8,157.20,3.07,1.34,1.00
2015-08-26 06:40,19.7,1.6,2.1,167.80,2.48,0.89,1.00
2015-08-26 06:50,19.6,1.8,2.5,156.20,2.68,1.02,1.00
2015-08-26 07:00,19.6,1.6,2.1,157.10,2.46,0.93,1.00
2015-08-26 07:10,19.5,1.6,2.0,157.80,2.19,1.11,1.00
2015-08-26 07:20,19.5,1.4,2.2,141.70,2.29,0.51,1.00
2015-08-26 07:30,19.4,1.9,2.5,146.60,2.73,1.27,1.00
2015-08-26 07:40,19.5,1.9,2.6,160.00,2.72,1.16,1.00
2015-08-26 07:50,19.5,1.8,2.4,175.90,2.56,0.96,1.00
2015-08-26 08:00,19.4,1.3,1.7,150.70,2.08,0.82,1.00
2015-08-26 08:10,19.4,1.2,2.3,176.10,2.34,0.37,1.00
2015-08-26 08:20,19.4,1.4,1.9,185.70,2.34,0.83,1.00
2015-08-26 08:30,19.3,1.6,2.2,186.00,2.40,1.03,1.00
2015-08-26 08:40,19.3,2.2,3.0,173.20,3.23,1.13,1.00
2015-08-26 08:50,19.2,2.0,2.5,187.60,2.72,1.25,1.00
2015-08-26 09:00,19.2,1.6,2.1,194.90,2.29,0.74,1.00
2015-08-26 09:10,19.1,2.1,2.9,179.70,3.19,1.30,1.00
2015-08-26 09:20,19.2,1.4,2.9,235.40,3.21,0.36,1.00
2015-08-26 09:30,19.1,,,,,,0.94
2015-08-26 09:40,19.5,,,,,,0.95
2015-08-26 09:50,19.6,,,,,,0.88
2015-08-26 10:00,19.5,,,,,,0.91
2015-08-26 10:10,19.5,,,,,,0.98
2015-08-26 10:20,19.5,,,,,,0.99
2015-08-26 10:30,19.6,0.7,1.1,128.60,1.58,0.08,1.00
2015-08-26 10:40,19.6,0.5,0.8,116.80,1.18,0.04,1.00
2015-08-26 10:50,19.5,0.8,1.3,309.20,1.72,0.12,1.00
2015-08-26 11:00,19.5,0.5,1.0,123.20,1.53,0.00,1.00
2015-08-26 11:10,19.6,0.7,1.3,118.90,1.62,0.03,1.00
2015-08-26 11:20,19.9,0.6,1.0,105.20,1.43,0.01,1.00
2015-08-26 11:30,19.9,,,,,,0.28
2015-08-26 11:40,19.9,0.4,2.2,82.80,1.07,0.02,1.00
2015-08-26 11:50,19.9,0.8,1.3,132.40,1.52,0.19,1.00
2015-08-26 12:00,19.9,1.0,1.4,119.30,1.63,0.30,1.00
2015-08-26 12:10,20.1,0.4,1.3,74.60,1.24,0.01,1.00
2015-08-26 12:20,19.9,0.8,1.2,331.90,1.51,0.31,1.00
2015-08-26 12:30,19.9,0.8,1.2,8.50,1.53,0.16,1.00
2015-08-26 12:40,20.0,0.9,1.4,264.30,2.35,0.15,1.00
2015-08-26 12:50,20.1,1.8,2.5,142.50,2.69,0.81,1.00
2015-08-26 13:00,20.1,1.7,2.8,144.20,3.19,0.58,1.00
2015-08-26 13:10,20.1,1.6,2.2,106.50,2.38,0.98,1.00
2015-08-26 13:20,19.9,2.8,3.6,117.70,3.86,1.68,1.00
2015-08-26 13:30,19.7,2.6,2.9,116.10,3.16,1.89,1.00
2015-08-26 13:40,19.5,2.7,3.3,130.40,3.58,1.77,1.00
2015-08-26 13:50,19.5,2.1,3.1,124.10,3.08,1.19,1.00
2015-08-26 14:00,19.4,1.4,2.2,141.00,2.57,0.63,1.00
2015-08-26 14:10,19.5,0.9,1.2,178.60,1.75,0.34,1.00
2015-08-26 14:20,19.5,1.0,1.1,142.60,1.49,0.49,1.00
2015-08-26 14:30,19.5,1.5,2.1,142.70,2.35,0.44,1.00
2015-08-26 14:40,19.5,1.6,2.1,150.60,2.36,0.78,1.00
2015-08-26 14:50,19.4,1.9,2.3,159.70,2.72,1.09,1.00
2015-08-26 15:00,19.4,1.5,2.3,186.40,2.61,0.56,1.00
2015-08-26 15:10,19.4,1.6,2.1,193.30,2.45,0.80,1.00
2015-08-26 15:20,19.3,1.4,1.9,185.50,2.39,0.58,1.00
2015-08-26 15:30,19.4,1.5,1.9,186.40,2.45,0.70,1.00
2015-08-26 15:40,19.4,1.8,2.5,176.40,2.94,0.59,1.00
2015-08-26 15:50,19.5,2.3,3.1,170.10,3.62,1.19,1.00
2015-08-26 16:00,19.4,2.7,3.6,162.00,3.84,1.53,1.00
2015-08-26 16:10,19.3,3.0,3.6,165.80,4.31,1.75,1.00
2015-08-26 16:20,19.2,2.1,3.1,188.90,3.72,0.63,1.00
2015-08-26 16:30,19.1,1.5,2.0,186.30,2.64,0.34,1.00
2015-08-26 16:40,19.2,1.7,2.6,178.70,3.09,0.38,1.00
2015-08-26 16:50,19.3,2.6,3.2,182.40,3.65,1.62,1.00
2015-08-26 17:00,19.5,2.5,3.0,179.10,3.53,1.23,1.00
2015-08-26 17:10,19.5,2.0,2.8,153.10,3.18,0.26,1.00
2015-08-26 17:20,19.8,2.9,3.8,169.20,4.35,0.82,1.00
2015-08-26 17:30,19.6,2.1,3.4,180.30,3.70,0.80,1.00
2015-08-26 17:40,20.0,3.8,4.6,142.40,4.84,1.71,1.00
2015-08-26 17:50,19.5,3.9,5.2,150.90,5.31,2.84,1.00
2015-08-26 18:00,19.5,2.9,3.4,178.10,3.92,1.99,1.00
2015-08-26 18:10,19.5,2.9,3.3,171.10,3.59,2.01,1.00
2015-08-26 18:20,19.5,2.4,3.0,194.90,3.34,1.62,1.00
2015-08-26 18:30,19.5,2.2,2.7,208.20,3.00,1.41,1.00
2015-08-26 18:40,19.7,2.6,3.3,187.20,3.47,1.47,1.00
2015-08-26 18:50,19.8,1.6,1.9,184.90,2.05,0.95,1.00
2015-08-26 19:00,19.9,2.3,2.7,156.60,2.98,1.39,1.00
2015-08-26 19:10,19.9,2.9,3.3,165.70,3.40,2.35,1.00
2015-08-26 19:20,20.0,2.6,3.2,160.10,3.36,1.90,1.00
2015-08-26 19:30,20.1,2.6,3.2,153.90,3.34,1.95,1.00
2015-08-26 19:40,20.1,2.3,2.9,141.30,3.01,1.73,1.00
2015-08-26 19:50,20.2,1.8,2.4,138.40,2.59,1.09,1.00
2015-08-26 20:00,20.4,1.8,2.1,125.10,2.27,1.02,1.00
2015-08-26 20:10,20.7,1.8,2.1,134.60,2.32,1.30,1.00
2015-08-26 20:20,20.5,3.0,3.9,150.80,4.12,2.26,1.00
2015-08-26 20:30,20.1,2.3,3.0,142.30,3.27,1.54,1.00
2015-08-26 20:40,20.0,2.0,2.7,138.50,2.85,1.37,1.00
2015-08-26 20:50,20.1,1.9,2.4,141.00,2.57,1.06,1.00
2015-08-26 21:00,20.1,2.2,3.4,134.20,3.65,0.79,1.00
2015-08-26 21:10,20.1,2.2,3.4,135.50,3.52,1.47,1.00
2015-08-26 21:20,20.2,1.7,2.0,147.10,2.12,1.18,1.00
2015-08-26 21:30,20.3,1.7,2.1,149.20,2.35,0.73,1.00
2015-08-26 21:40,20.4,1.7,2.2,144.90,2.44,0.57,1.00
2015-08-26 21:50,20.4,1.2,2.5,152.80,2.75,0.30,1.00
2015-08-26 22:00,20.2,0.6,1.0,193.90,1.16,0.31,1.00
2015-08-26 22:10,20.3,0.7,0.9,165.50,1.36,0.28,1.00
2015-08-26 22:20,20.4,1.2,1.8,145.20,2.07,0.27,1.00
2015-08-26 22:30,20.3,1.7,2.0,135.50,2.30,1.05,1.00
2015-08-26 22:40,20.4,1.9,2.2,129.50,2.42,1.03,1.00
2015-08-26 22:50,20.5,1.8,2.1,137.50,2.35,1.26,1.00
2015-08-26 23:00,20.4,2.2,2.8,129.00,3.01,0.20,1.00
2015-08-26 23:10,20.3,1.3,2.2,159.90,2.37,0.42,1.00
2015-08-26 23:20,20.2,0.6,0.9,246.40,1.03,0.15,1.00
2015-08-26 23:30,20.3,0.4,0.8,279.50,0.87,0.06,1.00
2015-08-26 23:40,20.5,0.6,1.0,270.90,1.17,0.20,1.00
2015-08-26 23:50,20.7,0.7,1.3,261.00,1.41,0.17,1.00
2015-08-27 00:00,20.7,1.0,1.8,221.80,2.01,0.08,1.00
2015-08-27 00:10,20.6,1.6,2.3,190.90,2.57,0.72,1.00
2015-08-27 00:20,20.4,0.7,1.3,190.50,1.34,0.03,1.00
2015-08-27 00:30,20.4,0.5,1.0,114.20,1.27,0.03,1.00
2015-08-27 00:40,20.5,0.7,1.9,281.60,2.19,0.02,1.00
2015-08-27 00:50,20.9,2.6,4.7,289.30,4.97,1.04,1.00
2015-08-27 01:00,20.5,4.9,7.0,318.30,7.41,2.50,1.00
2015-08-27 01:10,20.3,4.6,6.0,330.60,6.32,3.22,1.00
2015-08-27 01:20,20.3,5.6,7.9,341.30,8.70,3.55,1.00
2015-08-27 01:30,20.2,4.8,6.9,352.41,7.30,2.98,1.00
2015-08-27 01:40,20.0,4.5,5.3,350.60,5.64,3.09,1.00
2015-08-27 01:50,19.9,4.3,5.4,350.27,5.81,3.02,1.00
2015-08-27 02:00,19.7,3.2,4.3,13.23,4.43,1.75,1.00
2015-08-27 02:10,19.6,3.2,4.0,352.75,4.39,2.25,1.00
2015-08-27 02:20,19.4,2.6,3.1,350.56,3.30,1.79,1.00
2015-08-27 02:30,19.3,2.5,3.2,2.04,3.54,1.70,1.00
2015-08-27 02:40,19.2,3.1,3.6,357.01,3.95,2.23,1.00
2015-08-27 02:50,19.1,2.6,3.2,352.98,3.60,1.99,1.00
2015-08-27 03:00,19.0,2.9,3.3,326.20,3.67,1.99,1.00
2015-08-27 03:10,19.0,2.7,3.5,335.30,3.71,1.96,1.00
2015-08-27 03:20,18.9,2.5,3.1,348.18,3.43,1.72,1.00
2015-08-27 03:30,18.7,2.6,3.0,2.34,3.18,1.84,1.00
2015-08-27 03:40,18.6,2.5,2.9,12.10,3.22,1.65,1.00
2015-08-27 03:50,18.6,3.1,3.4,11.77,3.84,2.46,1.00
2015-08-27 04:00,18.5,3.0,3.6,10.83,3.99,1.98,1.00
2015-08-27 04:10,18.3,2.9,3.3,3.79,3.66,2.18,1.00
2015-08-27 04:20,18.6,3.4,4.1,356.46,4.29,2.28,1.00
2015-08-27 04:30,18.4,3.3,3.8,359.11,4.08,2.52,1.00
2015-08-27 04:40,18.5,3.7,4.6,346.89,4.79,2.44,1.00
2015-08-27 04:50,18.3,4.0,5.4,354.94,5.68,2.94,1.00
2015-08-27 05:00,18.1,4.0,4.9,347.90,5.28,2.87,1.00
2015-08-27 05:10,18.1,3.2,3.9,347.03,4.28,2.23,1.00
2015-08-27 05:20,18.2,3.4,4.2,350.82,4.63,2.42,1.00
2015-08-27 05:30,18.2,3.6,4.4,350.71,4.72,2.73,1.00
2015-08-27 05:40,18.3,4.0,5.4,341.80,5.72,2.85,1.00
2015-08-27 05:50,18.2,3.4,4.5,349.63,4.80,1.85,1.00
2015-08-27 06:00,18.1,3.5,4.3,346.23,4.72,2.59,1.00
2015-08-27 06:10,18.1,4.0,4.7,344.72,5.04,3.13,1.00
2015-08-27 06:20,18.0,4.4,5.5,351.46,5.73,3.19,1.00
2015-08-27 06:30,17.9,4.2,5.0,348.45,5.54,3.40,1.00
2015-08-27 06:40,17.9,3.9,4.2,358.81,4.61,3.15,1.00
2015-08-27 06:50,17.9,3.8,4.3,3.09,4.53,3.12,1.00
2015-08-27 07:00,18.1,4.0,5.0,354.97,5.40,2.87,1.00
2015-08-27 07:10,18.3,4.1,4.8,355.34,5.06,3.02,1.00
2015-08-27 07:20,18.4,4.2,5.1,351.07,5.44,3.05,1.00
2015-08-27 07:30,18.2,4.0,5.3,351.32,5.70,2.95,1.00
2015-08-27 07:40,18.3,3.8,4.8,339.60,5.42,2.75,1.00
2015-08-27 07:50,18.2,3.9,4.8,342.60,5.02,2.84,1.00
2015-08-27 08:00,18.1,3.7,4.8,345.92,5.08,2.81,1.00
2015-08-27 08:10,18.2,3.6,4.5,340.20,4.56,2.56,1.00
2015-08-27 08:20,18.2,4.2,5.3,346.27,5.47,2.95,1.00
2015-08-27 08:30,18.2,3.4,4.3,350.74,4.65,2.42,1.00
2015-08-27 08:40,18.1,3.3,4.2,356.48,4.50,2.44,1.00
2015-08-27 08:50,18.2,3.2,3.8,356.56,3.95,2.24,1.00
2015-08-27 09:00,18.0,3.6,5.1,348.69,5.42,2.41,1.00
2015-08-27 09:10,18.0,3.5,4.8,345.58,5.20,2.55,1.00
2015-08-27 09:20,18.0,3.2,4.0,346.22,4.43,2.30,1.00
2015-08-27 09:30,17.9,3.1,4.2,347.30,4.39,2.17,1.00
2015-08-27 09:40,17.9,3.2,4.3,351.04,4.61,2.16,1.00
2015-08-27 09:50,17.8,2.6,3.4,353.22,3.65,1.81,1.00
2015-08-27 10:00,17.6,2.8,3.7,346.61,3.86,1.85,1.00
2015-08-27 10:10,17.6,3.2,4.5,342.80,4.65,2.11,1.00
2015-08-27 10:20,17.7,3.2,3.8,350.01,4.03,2.17,1.00
2015-08-27 10:30,17.8,3.0,3.7,354.53,4.64,2.10,1.00
2015-08-27 10:40,18.0,3.4,4.2,352.76,4.49,2.32,1.00
2015-08-27 10:50,18.0,3.8,4.8,344.72,5.10,2.62,1.00
2015-08-27 11:00,18.1,3.2,4.5,345.41,5.01,2.08,1.00
2015-08-27 11:10,18.2,3.7,4.6,339.80,4.81,2.63,1.00
2015-08-27 11:20,18.3,3.5,4.8,351.17,5.16,2.06,1.00
2015-08-27 11:30,18.5,3.5,4.5,4.41,5.01,2.28,1.00
2015-08-27 11:40,18.3,4.2,5.3,12.03,5.59,3.09,1.00
2015-08-27 11:50,18.4,4.3,5.1,13.25,5.44,2.88,1.00
2015-08-27 12:00,18.6,4.3,5.3,359.55,5.51,3.32,1.00
2015-08-27 12:10,18.9,4.9,5.9,353.81,6.44,3.59,1.00
2015-08-27 12:20,19.1,4.5,5.4,351.11,5.94,3.23,1.00
2015-08-27 12:30,19.3,4.3,5.9,339.00,6.66,2.79,1.00
2015-08-27 12:40,19.5,4.5,5.6,341.40,6.30,3.33,1.00
2015-08-27 12:50,19.5,4.4,6.0,352.02,6.39,3.07,1.00
2015-08-27 13:00,19.6,4.0,4.7,357.17,4.98,2.87,1.00
2015-08-27 13:10,19.8,3.6,4.3,354.79,4.64,2.58,1.00
2015-08-27 13:20,20.2,3.5,4.4,348.56,4.71,2.37,1.00
2015-08-27 13:30,20.4,3.5,4.2,353.33,4.44,2.49,1.00
2015-08-27 13:40,20.4,3.2,4.1,4.96,4.38,2.09,1.00
2015-08-27 13:50,20.5,3.2,4.1,4.21,4.36,2.34,1.00
2015-08-27 14:00,20.9,3.6,4.9,359.15,5.38,2.01,1.00
2015-08-27 14:10,20.6,3.8,4.5,3.10,4.65,2.94,1.00
2015-08-27 14:20,20.8,3.5,4.3,1.60,4.39,2.19,1.00
2015-08-27 14:30,20.8,3.3,4.0,7.68,4.32,2.50,1.00
2015-08-27 14:40,20.9,2.7,3.2,17.35,3.65,2.03,1.00
2015-08-27 14:50,21.1,2.9,3.5,14.82,3.65,1.96,1.00
2015-08-27 15:00,21.5,2.8,3.5,3.56,3.74,1.81,1.00
2015-08-27 15:10,22.1,2.5,4.3,337.30,4.77,1.15,1.00
2015-08-27 15:20,22.6,3.8,6.5,308.80,7.51,1.69,1.00
2015-08-27 15:30,23.0,3.6,5.9,292.30,6.48,0.85,1.00
2015-08-27 15:40,23.3,3.1,6.1,291.60,6.40,0.30,1.00
2015-08-27 15:50,23.4,3.7,5.7,286.90,6.31,1.42,1.00
2015-08-27 16:00,23.5,3.7,5.5,296.90,5.87,1.31,1.00
2015-08-27 16:10,23.4,3.7,6.8,329.60,7.40,1.72,1.00
2015-08-27 16:20,23.6,2.7,4.7,318.60,5.26,0.41,1.00
2015-08-27 16:30,23.9,1.4,3.9,302.10,4.34,0.05,1.00
2015-08-27 16:40,22.8,3.1,7.9,191.20,8.05,0.11,1.00
2015-08-27 16:50,20.5,5.3,6.5,198.40,7.51,3.55,1.00
2015-08-27 17:00,20.7,4.7,6.3,198.10,6.65,2.65,1.00
2015-08-27 17:10,20.4,5.1,6.5,198.90,7.02,3.20,1.00
2015-08-27 17:20,20.4,4.7,6.0,206.40,6.47,2.64,1.00
2015-08-27 17:30,20.2,3.6,5.5,211.50,5.96,1.73,1.00
2015-08-27 17:40,20.1,3.8,5.2,208.70,5.84,1.98,1.00
2015-08-27 17:50,20.2,3.9,5.4,204.70,5.78,2.13,1.00
2015-08-27 18:00,19.6,4.7,6.2,199.20,6.67,2.85,1.00
2015-08-27 18:10,20.5,3.4,4.7,225.10,5.39,2.08,1.00
2015-08-27 18:20,20.9,4.3,5.9,240.10,6.28,2.81,1.00
2015-08-27 18:30,20.8,4.0,5.5,236.70,5.90,2.50,1.00
2015-08-27 18:40,21.0,4.0,5.8,229.10,6.20,2.81,1.00
2015-08-27 18:50,21.5,5.0,6.9,226.90,7.10,2.72,1.00
2015-08-27 19:00,21.0,5.0,7.5,231.10,8.15,2.74,1.00
2015-08-27 19:10,21.1,3.9,5.8,227.50,6.11,2.08,1.00
2015-08-27 19:20,21.5,5.1,7.7,234.30,8.43,2.78,1.00
2015-08-27 19:30,21.6,5.2,7.4,235.00,8.02,3.00,1.00
2015-08-27 19:40,21.4,4.7,7.1,229.40,7.43,2.55,1.00
2015-08-27 19:50,20.9,5.0,6.9,225.30,7.57,3.21,1.00
2015-08-27 20:00,20.6,5.0,7.6,232.10,8.03,3.04,1.00
2015-08-27 20:10,20.6,4.2,5.9,233.10,6.44,2.62,1.00
2015-08-27 20:20,20.6,3.3,6.1,232.70,6.80,1.37,1.00
2015-08-27 20:30,20.6,3.0,4.9,231.70,4.26,1.67,1.00
2015-08-27 20:40,21.0,3.4,4.9,228.80,5.46,1.65,1.00
2015-08-27 20:50,21.0,3.7,5.5,222.80,5.74,2.08,1.00
2015-08-27 21:00,20.8,4.0,5.5,222.70,5.81,2.63,1.00
2015-08-27 21:10,20.8,4.4,5.7,234.00,6.19,2.74,1.00
2015-08-27 21:20,20.8,3.7,5.4,235.00,5.62,2.40,1.00
2015-08-27 21:30,20.9,3.4,4.4,242.00,4.55,2.35,1.00
2015-08-27 21:40,21.0,3.6,5.2,238.10,5.52,2.37,1.00
2015-08-27 21:50,21.1,3.5,4.6,234.80,5.25,2.12,1.00
2015-08-27 22:00,21.0,3.6,5.0,236.20,5.24,2.19,1.00
2015-08-27 22:10,20.9,3.0,4.0,240.80,4.21,2.01,1.00
2015-08-27 22:20,20.8,3.0,3.9,241.50,4.16,1.98,1.00
2015-08-27 22:30,20.8,2.4,3.6,257.50,3.71,1.64,1.00
2015-08-27 22:40,20.7,2.0,2.6,245.70,2.99,0.83,1.00
2015-08-27 22:50,20.7,1.7,2.6,249.10,2.89,0.92,1.00
2015-08-27 23:00,20.3,1.4,2.0,234.80,2.71,0.69,1.00
2015-08-27 23:10,19.9,1.8,2.2,214.40,2.35,1.25,1.00
2015-08-27 23:20,19.6,1.9,2.2,214.80,2.37,1.44,1.00
2015-08-27 23:30,19.5,1.2,2.0,242.90,2.20,0.57,1.00
2015-08-27 23:40,19.0,0.9,1.4,280.60,1.45,0.30,1.00
2015-08-27 23:50,19.6,1.2,1.8,251.70,1.90,0.76,1.00
2015-08-28 00:00,19.0,1.3,1.8,264.80,1.87,0.72,1.00
2015-08-28 00:10,18.8,1.9,2.3,264.30,2.42,1.29,1.00
2015-08-28 00:20,19.0,1.9,2.9,273.10,3.02,1.39,1.00
2015-08-28 00:30,20.0,2.3,3.0,279.10,3.42,1.53,1.00
2015-08-28 00:40,19.8,1.8,2.2,273.40,2.41,1.40,1.00
2015-08-28 00:50,19.4,1.8,2.6,281.20,2.78,1.29,1.00
2015-08-28 01:00,19.3,2.5,3.1,277.60,3.27,1.83,1.00
2015-08-28 01:10,19.9,2.5,3.4,286.60,3.57,1.68,1.00
2015-08-28 01:20,20.1,2.9,4.3,298.90,4.70,1.78,1.00
2015-08-28 01:30,20.2,2.9,4.4,294.00,4.80,1.81,1.00
2015-08-28 01:40,20.0,2.9,4.1,294.60,4.33,1.89,1.00
2015-08-28 01:50,20.0,3.2,4.9,298.40,5.41,1.87,1.00
2015-08-28 02:00,20.0,3.7,5.1,297.70,5.43,2.16,1.00
2015-08-28 02:10,19.7,3.0,4.3,308.10,4.73,1.88,1.00
2015-08-28 02:20,19.5,2.8,4.7,320.10,4.83,2.05,1.00
2015-08-28 02:30,19.2,2.8,3.7,330.30,3.90,2.11,1.00
2015-08-28 02:40,19.2,3.0,3.8,306.10,4.03,1.99,1.00
2015-08-28 02:50,19.0,2.8,3.6,312.20,3.84,1.92,1.00
2015-08-28 03:00,18.9,2.5,3.5,325.50,3.83,1.37,1.00
2015-08-28 03:10,18.8,2.5,3.4,311.70,3.84,0.56,1.00
2015-08-28 03:20,18.8,2.7,3.2,326.10,3.47,1.72,1.00
2015-08-28 03:30,18.8,2.6,3.5,339.30,3.68,1.68,1.00
2015-08-28 03:40,18.3,2.6,3.1,316.50,3.41,1.77,1.00
2015-08-28 03:50,18.3,2.6,3.5,340.10,3.80,1.65,1.00
2015-08-28 04:00,18.0,2.9,3.7,328.80,3.86,2.04,1.00
2015-08-28 04:10,17.8,3.0,3.8,332.70,3.91,2.17,1.00
2015-08-28 04:20,17.8,2.5,3.1,354.28,3.43,1.68,1.00
2015-08-28 04:30,17.8,2.9,3.6,358.41,3.84,2.07,1.00
2015-08-28 04:40,17.6,2.4,3.4,1.98,3.61,1.80,1.00
2015-08-28 04:50,17.3,2.2,2.6,326.10,2.81,1.19,1.00
2015-08-28 05:00,17.0,2.5,3.2,320.10,3.65,1.63,1.00
2015-08-28 05:10,17.5,3.6,4.5,319.90,4.90,2.00,1.00
2015-08-28 05:20,17.2,2.9,3.5,332.80,3.79,1.88,1.00
2015-08-28 05:30,16.9,2.9,3.4,323.30,3.67,2.01,1.00
2015-08-28 05:40,16.9,3.1,3.6,325.80,4.04,2.34,1.00
2015-08-28 05:50,17.2,3.7,4.8,330.40,5.16,2.49,1.00
2015-08-28 06:00,17.5,3.8,4.7,335.40,5.10,2.40,1.00
2015-08-28 06:10,17.4,3.4,4.6,332.20,5.24,2.21,1.00
2015-08-28 06:20,17.7,4.0,5.1,327.40,5.32,2.77,1.00
2015-08-28 06:30,17.4,3.2,4.3,335.80,4.91,1.94,1.00
2015-08-28 06:40,17.3,3.2,4.0,336.30,4.46,0.27,1.00
2015-08-28 06:50,17.1,3.1,4.0,333.60,4.26,1.91,1.00
2015-08-28 07:00,17.0,2.9,3.6,330.50,3.77,1.70,1.00
2015-08-28 07:10,17.1,3.3,3.9,315.50,4.12,2.37,1.00
2015-08-28 07:20,16.8,2.8,3.3,333.40,3.66,2.17,1.00
2015-08-28 07:30,16.5,2.7,3.3,314.70,3.52,1.80,1.00
2015-08-28 07:40,16.6,2.6,3.5,313.60,3.71,1.83,1.00
2015-08-28 07:50,16.6,2.8,3.7,308.90,3.86,1.97,1.00
2015-08-28 08:00,16.7,2.9,3.8,310.10,4.13,1.76,1.00
2015-08-28 08:10,16.6,3.0,3.7,321.60,3.89,2.07,1.00
2015-08-28 08:20,16.4,2.2,2.8,339.90,2.91,1.64,1.00
2015-08-28 08:30,16.5,3.0,4.3,321.70,4.48,1.12,1.00
2015-08-28 08:40,16.5,2.7,3.5,330.60,3.69,1.77,1.00
2015-08-28 08:50,16.3,2.1,2.7,343.50,2.73,1.61,1.00
2015-08-28 09:00,16.5,2.3,3.1,341.90,3.22,1.32,1.00
2015-08-28 09:10,16.0,2.2,2.6,335.40,2.82,1.51,1.00
2015-08-28 09:20,16.1,2.6,2.9,353.64,3.11,1.94,1.00
2015-08-28 09:30,16.2,2.8,3.3,345.63,3.55,2.13,1.00
2015-08-28 09:40,16.1,3.0,4.0,346.89,4.19,1.99,1.00
2015-08-28 09:50,16.2,2.9,3.7,353.78,3.87,2.04,1.00
2015-08-28 10:00,16.5,2.9,4.3,5.66,4.67,1.46,1.00
2015-08-28 10:10,16.4,2.8,3.9,357.55,4.12,1.58,1.00
2015-08-28 10:20,16.5,2.9,3.9,11.13,4.18,1.35,1.00
2015-08-28 10:30,16.5,2.0,3.7,15.69,3.39,0.61,1.00
2015-08-28 10:40,16.6,1.7,2.4,30.73,2.51,0.93,1.00
2015-08-28 10:50,16.7,2.0,3.0,16.08,3.18,1.26,1.00
2015-08-28 11:00,16.8,2.2,2.9,3.79,2.99,1.32,1.00
2015-08-28 11:10,17.1,2.1,2.9,0.05,3.00,1.40,1.00
2015-08-28 11:20,17.3,2.0,2.8,358.77,2.87,1.39,1.00
2015-08-28 11:30,17.5,1.5,2.5,28.04,2.63,0.65,1.00
2015-08-28 11:40,18.3,0.7,1.3,50.85,1.32,0.03,1.00
2015-08-28 11:50,20.2,0.4,0.7,112.70,0.84,0.02,1.00
2015-08-28 12:00,20.1,1.0,3.1,332.90,3.41,0.03,1.00
2015-08-28 12:10,18.7,1.4,2.3,12.37,2.68,0.42,1.00
2015-08-28 12:20,19.2,0.9,1.8,18.31,1.99,0.25,1.00
2015-08-28 12:30,19.4,1.7,2.9,351.05,2.93,0.66,1.00
2015-08-28 12:40,19.8,2.1,3.7,299.70,4.04,0.25,1.00
2015-08-28 12:50,20.1,2.9,4.4,291.20,4.54,1.68,1.00
2015-08-28 13:00,20.1,3.3,6.0,319.60,6.18,0.59,1.00
2015-08-28 13:10,20.1,3.9,5.8,325.20,6.08,1.96,1.00
2015-08-28 13:20,20.2,5.0,7.3,339.50,7.65,2.53,1.00
2015-08-28 13:30,20.3,4.0,6.6,341.70,7.84,1.81,1.00
2015-08-28 13:40,20.5,5.1,8.6,327.50,8.67,2.74,1.00
2015-08-28 13:50,20.6,5.0,7.9,322.60,8.27,2.93,1.00
2015-08-28 14:00,20.2,5.2,7.7,346.10,7.99,2.64,1.00
2015-08-28 14:10,20.5,4.0,7.0,328.50,7.24,2.04,1.00
2015-08-28 14:20,20.4,4.3,5.7,347.45,6.03,3.04,1.00
2015-08-28 14:30,20.6,5.8,9.1,342.70,9.75,3.49,1.00
2015-08-28 14:40,20.7,5.2,6.9,350.55,7.24,3.31,1.00
2015-08-28 14:50,20.9,4.9,7.6,345.51,7.91,2.36,1.00
2015-08-28 15:00,20.9,3.8,6.0,346.17,6.55,1.66,1.00
2015-08-28 15:10,21.2,3.4,6.4,309.70,6.85,1.32,1.00
2015-08-28 15:20,21.4,2.5,4.5,317.80,5.06,0.26,1.00
2015-08-28 15:30,21.6,3.5,6.6,290.10,6.98,0.44,1.00
2015-08-28 15:40,21.6,3.8,6.9,333.20,7.49,0.99,1.00
2015-08-28 15:50,21.6,4.6,7.3,324.80,8.03,1.84,1.00
2015-08-28 16:00,21.7,4.0,5.7,327.70,6.05,1.80,1.00
2015-08-28 16:10,22.1,2.6,4.5,299.10,5.90,0.29,1.00
2015-08-28 16:20,22.3,2.6,4.8,299.90,5.37,0.45,1.00
2015-08-28 16:30,22.1,4.0,6.1,331.30,6.47,1.32,1.00
2015-08-28 16:40,22.4,3.7,7.5,271.80,8.13,0.73,1.00
2015-08-28 16:50,22.7,4.1,6.7,285.00,7.36,1.00,1.00
2015-08-28 17:00,22.7,3.6,6.2,283.80,7.16,1.09,1.00
2015-08-28 17:10,22.6,3.0,5.8,252.00,5.96,0.74,1.00
2015-08-28 17:20,20.1,5.2,8.4,198.70,8.68,2.70,1.00
2015-08-28 17:30,19.7,5.0,6.8,189.10,7.18,2.86,1.00
2015-08-28 17:40,19.7,4.9,5.5,190.10,6.24,3.38,1.00
2015-08-28 17:50,19.7,4.9,5.7,192.10,6.45,3.17,1.00
2015-08-28 18:00,19.7,4.9,6.2,190.60,7.03,2.71,1.00
2015-08-28 18:10,19.7,5.4,6.6,193.10,7.53,3.59,1.00